Location: Gerlach
(40.6516°N, 119.3568°W)
Time: 10:19:01
(UTC-07:00)

Transit 4A - Visible Passes

Search period start: 18 July 2024 00:00
Search period end: 28 July 2024 00:00
Orbit: 870 x 973 km, 66.8° (Epoch: 18 July)

Date Brightness Start Highest point End Pass type
(mag) Time Alt. Az. Time Alt. Az. Time Alt. Az.
18 Jul 10.4 00:13:20 10° N 00:16:16 14° NE 00:19:14 10° ENE visible
18 Jul 8.2 01:57:49 10° NNW 02:03:49 63° ENE 02:06:11 37° ESE visible
18 Jul 9.1 03:45:14 10° WNW 03:49:36 21° WSW 03:49:36 21° WSW visible
19 Jul 10.1 00:21:38 10° N 00:25:43 19° NE 00:29:52 10° E visible
19 Jul 7.8 02:06:48 10° NNW 02:12:51 90° ENE 02:13:58 62° SSE visible
19 Jul 9.7 03:55:34 10° WNW 03:57:23 13° W 03:57:23 13° W visible
20 Jul 9.6 00:30:11 10° N 00:35:05 25° NE 00:38:29 16° E visible
20 Jul 7.8 02:15:51 10° NW 02:21:50 62° WSW 02:21:54 62° WSW visible
21 Jul 9.1 00:38:53 10° NNW 00:44:20 35° NE 00:46:33 27° E visible
21 Jul 8.5 02:25:05 10° NW 02:29:59 40° W 02:29:59 40° W visible
21 Jul 10.4 23:04:00 10° NNE 23:05:41 11° NNE 23:07:22 10° NE visible
22 Jul 8.5 00:47:40 10° NNW 00:53:31 49° NE 00:54:42 43° E visible
22 Jul 9.1 02:34:31 10° NW 02:38:09 26° W 02:38:09 26° W visible
22 Jul 10.2 23:11:50 10° N 23:15:12 15° NE 23:18:35 10° ENE visible
23 Jul 7.9 00:56:34 10° NNW 01:02:37 70° ENE 01:02:56 69° E visible
23 Jul 9.7 02:44:18 10° WNW 02:46:23 16° W 02:46:23 16° W visible
23 Jul 9.8 23:20:14 10° N 23:24:37 20° NE 23:27:48 14° E visible
24 Jul 7.8 01:05:34 10° NNW 01:11:15 77° WNW 01:11:15 77° WNW visible
24 Jul 9.4 23:28:50 10° N 23:33:56 28° NE 23:36:10 22° E visible
25 Jul 8.3 01:14:40 10° NW 01:19:38 50° W 01:19:38 50° W visible
25 Jul 8.8 23:37:33 10° NNW 23:43:10 38° NE 23:44:36 34° E visible
26 Jul 8.9 01:23:57 10° NW 01:28:03 33° W 01:28:03 33° W visible
26 Jul 10.1 22:02:15 10° NNE 22:04:37 12° NE 22:06:59 10° ENE visible
26 Jul 8.2 23:46:23 10° NNW 23:52:19 54° NE 23:53:04 51° E visible
27 Jul 9.5 01:33:27 10° NW 01:36:32 22° W 01:36:32 22° W visible
27 Jul 9.9 22:10:22 10° N 22:14:05 17° NE 22:17:52 10° ENE visible
